Year,Month,Day,Hour,Minute,Value (Times are PST for temperature in C)
2014,07,13,00,00,19.90
2014,07,13,00,01,19.90
2014,07,13,00,02,19.90
2014,07,13,00,03,19.90
2014,07,13,00,04,19.80
2014,07,13,00,05,19.80
2014,07,13,00,06,19.80
2014,07,13,00,07,19.80
2014,07,13,00,08,19.80
2014,07,13,00,09,19.80
2014,07,13,00,10,19.80
2014,07,13,00,11,19.80
2014,07,13,00,12,19.80
2014,07,13,00,13,19.90
2014,07,13,00,14,19.80
2014,07,13,00,15,19.80
2014,07,13,00,16,19.80
2014,07,13,00,17,19.80
2014,07,13,00,18,19.80
2014,07,13,00,19,19.80
2014,07,13,00,20,19.70
2014,07,13,00,21,19.70
2014,07,13,00,22,19.70
2014,07,13,00,23,19.70
2014,07,13,00,24,19.70
2014,07,13,00,25,19.70
2014,07,13,00,26,19.60
2014,07,13,00,27,19.60
2014,07,13,00,28,19.60
2014,07,13,00,29,19.60
2014,07,13,00,30,19.50
2014,07,13,00,31,19.50
2014,07,13,00,32,19.50
2014,07,13,00,33,19.50
2014,07,13,00,34,19.40
2014,07,13,00,35,19.40
2014,07,13,00,36,19.40
2014,07,13,00,37,19.40
2014,07,13,00,38,19.40
2014,07,13,00,39,19.40
2014,07,13,00,40,19.30
2014,07,13,00,41,19.30
2014,07,13,00,42,19.30
2014,07,13,00,43,19.30
2014,07,13,00,44,19.30
2014,07,13,00,45,19.30
2014,07,13,00,46,19.30
2014,07,13,00,47,19.30
2014,07,13,00,48,19.30
2014,07,13,00,49,19.30
2014,07,13,00,50,19.20
2014,07,13,00,51,19.20
2014,07,13,00,52,19.20
2014,07,13,00,53,19.20
2014,07,13,00,54,19.20
2014,07,13,00,55,19.20
2014,07,13,00,56,19.10
2014,07,13,00,57,19.10
2014,07,13,00,58,19.10
2014,07,13,00,59,19.10
2014,07,13,01,00,19.10
2014,07,13,01,01,19.00
2014,07,13,01,02,19.00
2014,07,13,01,03,19.00
2014,07,13,01,04,19.00
2014,07,13,01,05,18.90
2014,07,13,01,06,18.90
2014,07,13,01,07,18.90
2014,07,13,01,08,18.90
2014,07,13,01,09,18.80
2014,07,13,01,10,18.80
2014,07,13,01,11,18.80
2014,07,13,01,12,18.80
2014,07,13,01,13,18.80
2014,07,13,01,14,18.70
2014,07,13,01,15,18.70
2014,07,13,01,16,18.70
2014,07,13,01,17,18.70
2014,07,13,01,18,18.60
2014,07,13,01,19,18.60
2014,07,13,01,20,18.60
2014,07,13,01,21,18.60
2014,07,13,01,22,18.60
2014,07,13,01,23,18.50
2014,07,13,01,24,18.50
2014,07,13,01,25,18.50
2014,07,13,01,26,18.50
2014,07,13,01,27,18.40
2014,07,13,01,28,18.40
2014,07,13,01,29,18.40
2014,07,13,01,30,18.40
2014,07,13,01,31,18.40
2014,07,13,01,32,18.40
2014,07,13,01,33,18.30
2014,07,13,01,34,18.30
2014,07,13,01,35,18.30
2014,07,13,01,36,18.30
2014,07,13,01,37,18.30
2014,07,13,01,38,18.30
2014,07,13,01,39,18.20
2014,07,13,01,40,18.20
2014,07,13,01,41,18.20
2014,07,13,01,42,18.20
2014,07,13,01,43,18.20
2014,07,13,01,44,18.20
2014,07,13,01,45,18.20
2014,07,13,01,46,18.20
2014,07,13,01,47,18.10
2014,07,13,01,48,18.10
2014,07,13,01,49,18.10
2014,07,13,01,50,18.10
2014,07,13,01,51,18.10
2014,07,13,01,52,18.10
2014,07,13,01,53,18.10
2014,07,13,01,54,18.10
2014,07,13,01,55,18.10
2014,07,13,01,56,18.10
2014,07,13,01,57,18.00
2014,07,13,01,58,18.00
2014,07,13,01,59,18.00
2014,07,13,02,00,18.00
2014,07,13,02,01,18.00
2014,07,13,02,02,17.90
2014,07,13,02,03,17.90
2014,07,13,02,04,17.90
2014,07,13,02,05,17.90
2014,07,13,02,06,17.90
2014,07,13,02,07,17.90
2014,07,13,02,08,17.90
2014,07,13,02,09,17.90
2014,07,13,02,10,17.90
2014,07,13,02,11,17.90
2014,07,13,02,12,17.90
2014,07,13,02,13,17.80
2014,07,13,02,14,17.80
2014,07,13,02,15,17.80
2014,07,13,02,16,17.80
2014,07,13,02,17,17.80
2014,07,13,02,18,17.80
2014,07,13,02,19,17.80
2014,07,13,02,20,17.80
2014,07,13,02,21,17.70
2014,07,13,02,22,17.70
2014,07,13,02,23,17.70
2014,07,13,02,24,17.70
2014,07,13,02,25,17.70
2014,07,13,02,26,17.70
2014,07,13,02,27,17.60
2014,07,13,02,28,17.60
2014,07,13,02,29,17.60
2014,07,13,02,30,17.60
2014,07,13,02,31,17.60
2014,07,13,02,32,17.60
2014,07,13,02,33,17.50
2014,07,13,02,34,17.50
2014,07,13,02,35,17.50
2014,07,13,02,36,17.50
2014,07,13,02,37,17.40
2014,07,13,02,38,17.40
2014,07,13,02,39,17.40
2014,07,13,02,40,17.40
2014,07,13,02,41,17.40
2014,07,13,02,42,17.30
2014,07,13,02,43,17.30
2014,07,13,02,44,17.30
2014,07,13,02,45,17.30
2014,07,13,02,46,17.30
2014,07,13,02,47,17.20
2014,07,13,02,48,17.20
2014,07,13,02,49,17.20
2014,07,13,02,50,17.20
2014,07,13,02,51,17.20
2014,07,13,02,52,17.10
2014,07,13,02,53,17.10
2014,07,13,02,54,17.10
2014,07,13,02,55,17.10
2014,07,13,02,56,17.10
2014,07,13,02,57,17.10
2014,07,13,02,58,17.10
2014,07,13,02,59,17.10
2014,07,13,03,00,17.00
2014,07,13,03,01,17.00
2014,07,13,03,02,17.00
2014,07,13,03,03,17.00
2014,07,13,03,04,17.00
2014,07,13,03,05,16.90
2014,07,13,03,06,16.90
2014,07,13,03,07,16.90
2014,07,13,03,08,16.90
2014,07,13,03,09,16.90
2014,07,13,03,10,16.90
2014,07,13,03,11,16.80
2014,07,13,03,12,16.80
2014,07,13,03,13,16.80
2014,07,13,03,14,16.80
2014,07,13,03,15,16.80
2014,07,13,03,16,16.80
2014,07,13,03,17,16.80
2014,07,13,03,18,16.80
2014,07,13,03,19,16.80
2014,07,13,03,20,16.80
2014,07,13,03,21,16.80
2014,07,13,03,22,16.70
2014,07,13,03,23,16.70
2014,07,13,03,24,16.70
2014,07,13,03,25,16.70
2014,07,13,03,26,16.70
2014,07,13,03,27,16.70
2014,07,13,03,28,16.70
2014,07,13,03,29,16.70
2014,07,13,03,30,16.70
2014,07,13,03,31,16.70
2014,07,13,03,32,16.60
2014,07,13,03,33,16.60
2014,07,13,03,34,16.60
2014,07,13,03,35,16.60
2014,07,13,03,36,16.60
2014,07,13,03,37,16.60
2014,07,13,03,38,16.50
2014,07,13,03,39,16.50
2014,07,13,03,40,16.50
2014,07,13,03,41,16.40
2014,07,13,03,42,16.40
2014,07,13,03,43,16.40
2014,07,13,03,44,16.40
2014,07,13,03,45,16.40
2014,07,13,03,46,16.40
2014,07,13,03,47,16.40
2014,07,13,03,48,16.40
2014,07,13,03,49,16.40
2014,07,13,03,50,16.40
2014,07,13,03,51,16.30
2014,07,13,03,52,16.30
2014,07,13,03,53,16.30
2014,07,13,03,54,16.30
2014,07,13,03,55,16.30
2014,07,13,03,56,16.30
2014,07,13,03,57,16.30
2014,07,13,03,58,16.30
2014,07,13,03,59,16.30
2014,07,13,04,00,16.30
2014,07,13,04,01,16.30
2014,07,13,04,02,16.30
2014,07,13,04,03,16.30
2014,07,13,04,04,16.30
2014,07,13,04,05,16.30
2014,07,13,04,06,16.30
2014,07,13,04,07,16.30
2014,07,13,04,08,16.20
2014,07,13,04,09,16.20
2014,07,13,04,10,16.20
2014,07,13,04,11,16.20
2014,07,13,04,12,16.20
2014,07,13,04,13,16.20
2014,07,13,04,14,16.20
2014,07,13,04,15,16.20
2014,07,13,04,16,16.20
2014,07,13,04,17,16.20
2014,07,13,04,18,16.10
2014,07,13,04,19,16.10
2014,07,13,04,20,16.10
2014,07,13,04,21,16.10
2014,07,13,04,22,16.10
2014,07,13,04,23,16.10
2014,07,13,04,24,16.10
2014,07,13,04,25,16.10
2014,07,13,04,26,16.00
2014,07,13,04,27,16.00
2014,07,13,04,28,16.00
2014,07,13,04,29,16.00
2014,07,13,04,30,16.00
2014,07,13,04,31,15.90
2014,07,13,04,32,15.90
2014,07,13,04,33,15.90
2014,07,13,04,34,15.90
2014,07,13,04,35,15.90
2014,07,13,04,36,15.90
2014,07,13,04,37,15.90
2014,07,13,04,38,15.80
2014,07,13,04,39,15.80
2014,07,13,04,40,15.80
2014,07,13,04,41,15.80
2014,07,13,04,42,15.80
2014,07,13,04,43,15.80
2014,07,13,04,44,15.80
2014,07,13,04,45,15.80
2014,07,13,04,46,15.80
2014,07,13,04,47,15.80
2014,07,13,04,48,15.80
2014,07,13,04,49,15.80
2014,07,13,04,50,15.80
2014,07,13,04,51,15.80
2014,07,13,04,52,15.80
2014,07,13,04,53,15.80
2014,07,13,04,54,15.80
2014,07,13,04,55,15.80
2014,07,13,04,56,15.80
2014,07,13,04,57,15.70
2014,07,13,04,58,15.70
2014,07,13,04,59,15.70
2014,07,13,05,00,15.70
2014,07,13,05,01,15.70
2014,07,13,05,02,15.70
2014,07,13,05,03,15.70
2014,07,13,05,04,15.70
2014,07,13,05,05,15.70
2014,07,13,05,06,15.70
2014,07,13,05,07,15.70
2014,07,13,05,08,15.70
2014,07,13,05,09,15.60
2014,07,13,05,10,15.60
2014,07,13,05,11,15.60
2014,07,13,05,12,15.60
2014,07,13,05,13,15.60
2014,07,13,05,14,15.60
2014,07,13,05,15,15.60
2014,07,13,05,16,15.60
2014,07,13,05,17,15.60
2014,07,13,05,18,15.60
2014,07,13,05,19,15.50
2014,07,13,05,20,15.50
2014,07,13,05,21,15.50
2014,07,13,05,22,15.50
2014,07,13,05,23,15.50
2014,07,13,05,24,15.40
2014,07,13,05,25,15.40
2014,07,13,05,26,15.40
2014,07,13,05,27,15.40
2014,07,13,05,28,15.40
2014,07,13,05,29,15.40
2014,07,13,05,30,15.40
2014,07,13,05,31,15.30
2014,07,13,05,32,15.30
2014,07,13,05,33,15.30
2014,07,13,05,34,15.30
2014,07,13,05,35,15.30
2014,07,13,05,36,15.30
2014,07,13,05,37,15.30
2014,07,13,05,38,15.30
2014,07,13,05,39,15.30
2014,07,13,05,40,15.30
2014,07,13,05,41,15.30
2014,07,13,05,42,15.30
2014,07,13,05,43,15.30
2014,07,13,05,44,15.30
2014,07,13,05,45,15.30
2014,07,13,05,46,15.30
2014,07,13,05,47,15.30
2014,07,13,05,48,15.30
2014,07,13,05,49,15.30
2014,07,13,05,50,15.30
2014,07,13,05,51,15.30
2014,07,13,05,52,15.30
2014,07,13,05,53,15.30
2014,07,13,05,54,15.30
2014,07,13,05,55,15.30
2014,07,13,05,56,15.30
2014,07,13,05,57,15.30
2014,07,13,05,58,15.30
2014,07,13,05,59,15.30
2014,07,13,06,00,15.40
2014,07,13,06,01,15.40
2014,07,13,06,02,15.40
2014,07,13,06,03,15.40
2014,07,13,06,04,15.40
2014,07,13,06,05,15.40
2014,07,13,06,06,15.40
2014,07,13,06,07,15.40
2014,07,13,06,08,15.50
2014,07,13,06,09,15.50
2014,07,13,06,10,15.50
2014,07,13,06,11,15.50
2014,07,13,06,12,15.50
2014,07,13,06,13,15.60
2014,07,13,06,14,15.60
2014,07,13,06,15,15.60
2014,07,13,06,16,15.60
2014,07,13,06,17,15.60
2014,07,13,06,18,15.60
2014,07,13,06,19,15.60
2014,07,13,06,20,15.70
2014,07,13,06,21,15.70
2014,07,13,06,22,15.70
2014,07,13,06,23,15.70
2014,07,13,06,24,15.70
2014,07,13,06,25,15.70
2014,07,13,06,26,15.70
2014,07,13,06,27,15.80
2014,07,13,06,28,15.80
2014,07,13,06,29,15.80
2014,07,13,06,30,15.80
2014,07,13,06,31,15.80
2014,07,13,06,32,15.80
2014,07,13,06,33,15.80
2014,07,13,06,34,15.90
2014,07,13,06,35,15.90
2014,07,13,06,36,15.90
2014,07,13,06,37,15.90
2014,07,13,06,38,16.00
2014,07,13,06,39,16.00
2014,07,13,06,40,16.10
2014,07,13,06,41,16.10
2014,07,13,06,42,16.20
2014,07,13,06,43,16.20
2014,07,13,06,44,16.20
2014,07,13,06,45,16.20
2014,07,13,06,46,16.30
2014,07,13,06,47,16.30
2014,07,13,06,48,16.30
2014,07,13,06,49,16.40
2014,07,13,06,50,16.40
2014,07,13,06,51,16.40
2014,07,13,06,52,16.50
2014,07,13,06,53,16.50
2014,07,13,06,54,16.60
2014,07,13,06,55,16.60
2014,07,13,06,56,16.60
2014,07,13,06,57,16.60
2014,07,13,06,58,16.60
2014,07,13,06,59,16.70
2014,07,13,07,00,16.70
2014,07,13,07,01,16.80
2014,07,13,07,02,16.80
2014,07,13,07,03,16.80
2014,07,13,07,04,16.90
2014,07,13,07,05,16.90
2014,07,13,07,06,17.00
2014,07,13,07,07,17.00
2014,07,13,07,08,17.10
2014,07,13,07,09,17.10
2014,07,13,07,10,17.20
2014,07,13,07,11,17.30
2014,07,13,07,12,17.30
2014,07,13,07,13,17.40
2014,07,13,07,14,17.50
2014,07,13,07,15,17.50
2014,07,13,07,16,17.60
2014,07,13,07,17,17.70
2014,07,13,07,18,17.80
2014,07,13,07,19,17.80
2014,07,13,07,20,17.90
2014,07,13,07,21,18.00
2014,07,13,07,22,18.10
2014,07,13,07,23,18.10
2014,07,13,07,24,18.20
2014,07,13,07,25,18.20
2014,07,13,07,26,18.30
2014,07,13,07,27,18.40
2014,07,13,07,28,18.40
2014,07,13,07,29,18.50
2014,07,13,07,30,18.50
2014,07,13,07,31,18.60
2014,07,13,07,32,18.60
2014,07,13,07,33,18.60
2014,07,13,07,34,18.70
2014,07,13,07,35,18.70
2014,07,13,07,36,18.80
2014,07,13,07,37,18.80
2014,07,13,07,38,18.90
2014,07,13,07,39,19.00
2014,07,13,07,40,19.10
2014,07,13,07,41,19.10
2014,07,13,07,42,19.20
2014,07,13,07,43,19.30
2014,07,13,07,44,19.30
2014,07,13,07,45,19.40
2014,07,13,07,46,19.50
2014,07,13,07,47,19.50
2014,07,13,07,48,19.60
2014,07,13,07,49,19.70
2014,07,13,07,50,19.70
2014,07,13,07,51,19.80
2014,07,13,07,52,19.80
2014,07,13,07,53,19.90
2014,07,13,07,54,19.90
2014,07,13,07,55,19.90
2014,07,13,07,56,20.00
2014,07,13,07,57,20.10
2014,07,13,07,58,20.10
2014,07,13,07,59,20.10
2014,07,13,08,00,20.20
2014,07,13,08,01,20.20
2014,07,13,08,02,20.20
2014,07,13,08,03,20.20
2014,07,13,08,04,20.30
2014,07,13,08,05,20.30
2014,07,13,08,06,20.30
2014,07,13,08,07,20.30
2014,07,13,08,08,20.30
2014,07,13,08,09,20.40
2014,07,13,08,10,20.40
2014,07,13,08,11,20.50
2014,07,13,08,12,20.50
2014,07,13,08,13,20.60
2014,07,13,08,14,20.60
2014,07,13,08,15,20.60
2014,07,13,08,16,20.70
2014,07,13,08,17,20.70
2014,07,13,08,18,20.70
2014,07,13,08,19,20.70
2014,07,13,08,20,20.80
2014,07,13,08,21,20.80
2014,07,13,08,22,20.80
2014,07,13,08,23,20.80
2014,07,13,08,24,20.90
2014,07,13,08,25,20.90
2014,07,13,08,26,20.90
2014,07,13,08,27,20.90
2014,07,13,08,28,21.00
2014,07,13,08,29,21.00
2014,07,13,08,30,21.00
2014,07,13,08,31,21.10
2014,07,13,08,32,21.10
2014,07,13,08,33,21.10
2014,07,13,08,34,21.10
2014,07,13,08,35,21.20
2014,07,13,08,36,21.20
2014,07,13,08,37,21.20
2014,07,13,08,38,21.30
2014,07,13,08,39,21.30
2014,07,13,08,40,21.40
2014,07,13,08,41,21.40
2014,07,13,08,42,21.40
2014,07,13,08,43,21.40
2014,07,13,08,44,21.50
2014,07,13,08,45,21.50
2014,07,13,08,46,21.50
2014,07,13,08,47,21.60
2014,07,13,08,48,21.60
2014,07,13,08,49,21.60
2014,07,13,08,50,21.60
2014,07,13,08,51,21.70
2014,07,13,08,52,21.70
2014,07,13,08,53,21.80
2014,07,13,08,54,21.80
2014,07,13,08,55,21.80
2014,07,13,08,56,21.90
2014,07,13,08,57,21.90
2014,07,13,08,58,22.00
2014,07,13,08,59,22.10
2014,07,13,09,00,22.10
2014,07,13,09,01,22.10
2014,07,13,09,02,22.20
2014,07,13,09,03,22.30
2014,07,13,09,04,22.30
2014,07,13,09,05,22.40
2014,07,13,09,06,22.40
2014,07,13,09,07,22.40
2014,07,13,09,08,22.50
2014,07,13,09,09,22.50
2014,07,13,09,10,22.50
2014,07,13,09,11,22.60
2014,07,13,09,12,22.60
2014,07,13,09,13,22.60
2014,07,13,09,14,22.70
2014,07,13,09,15,22.70
2014,07,13,09,16,22.70
2014,07,13,09,17,22.80
2014,07,13,09,18,22.80
2014,07,13,09,19,22.80
2014,07,13,09,20,22.80
2014,07,13,09,21,22.80
2014,07,13,09,22,22.90
2014,07,13,09,23,22.90
2014,07,13,09,24,23.00
2014,07,13,09,25,23.00
2014,07,13,09,26,23.10
2014,07,13,09,27,23.20
2014,07,13,09,28,23.20
2014,07,13,09,29,23.30
2014,07,13,09,30,23.40
2014,07,13,09,31,23.50
2014,07,13,09,32,23.50
2014,07,13,09,33,23.60
2014,07,13,09,34,23.60
2014,07,13,09,35,23.60
2014,07,13,09,36,23.60
2014,07,13,09,37,23.70
2014,07,13,09,38,23.70
2014,07,13,09,39,23.70
2014,07,13,09,40,23.70
2014,07,13,09,41,23.70
2014,07,13,09,42,23.70
2014,07,13,09,43,23.70
2014,07,13,09,44,23.80
2014,07,13,09,45,23.80
2014,07,13,09,46,23.90
2014,07,13,09,47,24.00
2014,07,13,09,48,24.00
2014,07,13,09,49,24.10
2014,07,13,09,50,24.10
2014,07,13,09,51,24.10
2014,07,13,09,52,24.10
2014,07,13,09,53,24.10
2014,07,13,09,54,24.10
2014,07,13,09,55,24.20
2014,07,13,09,56,24.20
2014,07,13,09,57,24.20
2014,07,13,09,58,24.30
2014,07,13,09,59,24.30
2014,07,13,10,00,24.40
2014,07,13,10,01,24.40
2014,07,13,10,02,24.40
2014,07,13,10,03,24.50
2014,07,13,10,04,24.50
2014,07,13,10,05,24.60
2014,07,13,10,06,24.60
2014,07,13,10,07,24.60
2014,07,13,10,08,24.60
2014,07,13,10,09,24.70
2014,07,13,10,10,24.70
2014,07,13,10,11,24.80
2014,07,13,10,12,24.80
2014,07,13,10,13,24.80
2014,07,13,10,14,24.90
2014,07,13,10,15,24.90
2014,07,13,10,16,25.00
2014,07,13,10,17,25.00
2014,07,13,10,18,25.10
2014,07,13,10,19,25.10
2014,07,13,10,20,25.20
2014,07,13,10,21,25.20
2014,07,13,10,22,25.20
2014,07,13,10,23,25.30
2014,07,13,10,24,25.30
2014,07,13,10,25,25.30
2014,07,13,10,26,25.40
2014,07,13,10,27,25.50
2014,07,13,10,28,25.50
2014,07,13,10,29,25.60
2014,07,13,10,30,25.60
2014,07,13,10,31,25.60
2014,07,13,10,32,25.70
2014,07,13,10,33,25.70
2014,07,13,10,34,25.70
2014,07,13,10,35,25.80
2014,07,13,10,36,25.90
2014,07,13,10,37,25.90
2014,07,13,10,38,25.90
2014,07,13,10,39,25.90
2014,07,13,10,40,25.80
2014,07,13,10,41,25.80
2014,07,13,10,42,25.80
2014,07,13,10,43,25.80
2014,07,13,10,44,25.80
2014,07,13,10,45,25.80
2014,07,13,10,46,25.80
2014,07,13,10,47,25.80
2014,07,13,10,48,25.80
2014,07,13,10,49,25.80
2014,07,13,10,50,25.80
2014,07,13,10,51,25.80
2014,07,13,10,52,25.80
2014,07,13,10,53,25.80
2014,07,13,10,54,25.80
2014,07,13,10,55,25.90
2014,07,13,10,56,25.90
2014,07,13,10,57,26.00
2014,07,13,10,58,26.10
2014,07,13,10,59,26.10
2014,07,13,11,00,26.20
2014,07,13,11,01,26.20
2014,07,13,11,02,26.30
2014,07,13,11,03,26.30
2014,07,13,11,04,26.30
2014,07,13,11,05,26.40
2014,07,13,11,06,26.40
2014,07,13,11,07,26.50
2014,07,13,11,08,26.50
2014,07,13,11,09,26.60
2014,07,13,11,10,26.70
2014,07,13,11,11,26.70
2014,07,13,11,12,26.80
2014,07,13,11,13,26.80
2014,07,13,11,14,26.90
2014,07,13,11,15,26.90
2014,07,13,11,16,26.90
2014,07,13,11,17,26.90
2014,07,13,11,18,27.00
2014,07,13,11,19,27.00
2014,07,13,11,20,27.10
2014,07,13,11,21,27.10
2014,07,13,11,22,27.10
2014,07,13,11,23,27.20
2014,07,13,11,24,27.30
2014,07,13,11,25,27.30
2014,07,13,11,26,27.40
2014,07,13,11,27,27.40
2014,07,13,11,28,27.40
2014,07,13,11,29,27.40
2014,07,13,11,30,27.40
2014,07,13,11,31,27.50
2014,07,13,11,32,27.50
2014,07,13,11,33,27.60
2014,07,13,11,34,27.60
2014,07,13,11,35,27.70
2014,07,13,11,36,27.70
2014,07,13,11,37,27.80
2014,07,13,11,38,27.80
2014,07,13,11,39,27.90
2014,07,13,11,40,28.00
2014,07,13,11,41,28.00
2014,07,13,11,42,28.00
2014,07,13,11,43,28.00
2014,07,13,11,44,28.10
2014,07,13,11,45,28.10
2014,07,13,11,46,28.10
2014,07,13,11,47,28.20
2014,07,13,11,48,28.20
2014,07,13,11,49,28.30
2014,07,13,11,50,28.30
2014,07,13,11,51,28.30
2014,07,13,11,52,28.30
2014,07,13,11,53,28.30
2014,07,13,11,54,28.30
2014,07,13,11,55,28.30
2014,07,13,11,56,28.30
2014,07,13,11,57,28.30
2014,07,13,11,58,28.30
2014,07,13,11,59,28.30
2014,07,13,12,00,28.30
2014,07,13,12,01,28.40
2014,07,13,12,02,28.50
2014,07,13,12,03,28.50
2014,07,13,12,04,28.60
2014,07,13,12,05,28.70
2014,07,13,12,06,28.70
2014,07,13,12,07,28.80
2014,07,13,12,08,28.80
2014,07,13,12,09,28.80
2014,07,13,12,10,28.80
2014,07,13,12,11,28.80
2014,07,13,12,12,28.80
2014,07,13,12,13,28.80
2014,07,13,12,14,28.80
2014,07,13,12,15,28.90
2014,07,13,12,16,28.90
2014,07,13,12,17,28.90
2014,07,13,12,18,28.90
2014,07,13,12,19,28.90
2014,07,13,12,20,28.90
2014,07,13,12,21,28.80
2014,07,13,12,22,28.80
2014,07,13,12,23,28.80
2014,07,13,12,24,28.70
2014,07,13,12,25,28.70
2014,07,13,12,26,28.70
2014,07,13,12,27,28.70
2014,07,13,12,28,28.70
2014,07,13,12,29,28.70
2014,07,13,12,30,28.70
2014,07,13,12,31,28.70
2014,07,13,12,32,28.70
2014,07,13,12,33,28.70
2014,07,13,12,34,28.70
2014,07,13,12,35,28.80
2014,07,13,12,36,28.80
2014,07,13,12,37,28.80
2014,07,13,12,38,28.80
2014,07,13,12,39,28.90
2014,07,13,12,40,28.90
2014,07,13,12,41,29.00
2014,07,13,12,42,29.10
2014,07,13,12,43,29.20
2014,07,13,12,44,29.20
2014,07,13,12,45,29.20
2014,07,13,12,46,29.20
2014,07,13,12,47,29.20
2014,07,13,12,48,29.20
2014,07,13,12,49,29.20
2014,07,13,12,50,29.20
2014,07,13,12,51,29.20
2014,07,13,12,52,29.20
2014,07,13,12,53,29.20
2014,07,13,12,54,29.30
2014,07,13,12,55,29.30
2014,07,13,12,56,29.30
2014,07,13,12,57,29.30
2014,07,13,12,58,29.30
2014,07,13,12,59,29.30
2014,07,13,13,00,29.30
2014,07,13,13,01,29.40
2014,07,13,13,02,29.40
2014,07,13,13,03,29.40
2014,07,13,13,04,29.40
2014,07,13,13,05,29.50
2014,07,13,13,06,29.50
2014,07,13,13,07,29.60
2014,07,13,13,08,29.60
2014,07,13,13,09,29.70
2014,07,13,13,10,29.70
2014,07,13,13,11,29.70
2014,07,13,13,12,29.80
2014,07,13,13,13,29.80
2014,07,13,13,14,29.80
2014,07,13,13,15,29.80
2014,07,13,13,16,29.70
2014,07,13,13,17,29.70
2014,07,13,13,18,29.60
2014,07,13,13,19,29.60
2014,07,13,13,20,29.60
2014,07,13,13,21,29.60
2014,07,13,13,22,29.50
2014,07,13,13,23,29.50
2014,07,13,13,24,29.40
2014,07,13,13,25,29.40
2014,07,13,13,26,29.40
2014,07,13,13,27,29.40
2014,07,13,13,28,29.40
2014,07,13,13,29,29.30
2014,07,13,13,30,29.30
2014,07,13,13,31,29.40
2014,07,13,13,32,29.40
2014,07,13,13,33,29.40
2014,07,13,13,34,29.50
2014,07,13,13,35,29.50
2014,07,13,13,36,29.50
2014,07,13,13,37,29.60
2014,07,13,13,38,29.60
2014,07,13,13,39,29.60
2014,07,13,13,40,29.60
2014,07,13,13,41,29.60
2014,07,13,13,42,29.60
2014,07,13,13,43,29.70
2014,07,13,13,44,29.70
2014,07,13,13,45,29.80
2014,07,13,13,46,29.80
2014,07,13,13,47,29.90
2014,07,13,13,48,29.90
2014,07,13,13,49,30.00
2014,07,13,13,50,30.00
2014,07,13,13,51,30.10
2014,07,13,13,52,30.20
2014,07,13,13,53,30.30
2014,07,13,13,54,30.30
2014,07,13,13,55,30.40
2014,07,13,13,56,30.40
2014,07,13,13,57,30.50
2014,07,13,13,58,30.60
2014,07,13,13,59,30.60
2014,07,13,14,00,30.60
2014,07,13,14,01,30.60
2014,07,13,14,02,30.70
2014,07,13,14,03,30.70
2014,07,13,14,04,30.80
2014,07,13,14,05,30.90
2014,07,13,14,06,30.90
2014,07,13,14,07,31.00
2014,07,13,14,08,31.00
2014,07,13,14,09,31.10
2014,07,13,14,10,31.10
2014,07,13,14,11,31.10
2014,07,13,14,12,31.20
2014,07,13,14,13,31.30
2014,07,13,14,14,31.30
2014,07,13,14,15,31.30
2014,07,13,14,16,31.30
2014,07,13,14,17,31.30
2014,07,13,14,18,31.30
2014,07,13,14,19,31.40
2014,07,13,14,20,31.40
2014,07,13,14,21,31.50
2014,07,13,14,22,31.60
2014,07,13,14,23,31.60
2014,07,13,14,24,31.60
2014,07,13,14,25,31.70
2014,07,13,14,26,31.80
2014,07,13,14,27,31.80
2014,07,13,14,28,31.90
2014,07,13,14,29,31.90
2014,07,13,14,30,31.90
2014,07,13,14,31,32.00
2014,07,13,14,32,31.90
2014,07,13,14,33,32.00
2014,07,13,14,34,32.00
2014,07,13,14,35,32.00
2014,07,13,14,36,32.00
2014,07,13,14,37,32.10
2014,07,13,14,38,32.10
2014,07,13,14,39,32.10
2014,07,13,14,40,32.20
2014,07,13,14,41,32.20
2014,07,13,14,42,32.20
2014,07,13,14,43,32.20
2014,07,13,14,44,32.20
2014,07,13,14,45,32.20
2014,07,13,14,46,32.20
2014,07,13,14,47,32.30
2014,07,13,14,48,32.30
2014,07,13,14,49,32.30
2014,07,13,14,50,32.30
2014,07,13,14,51,32.20
2014,07,13,14,52,32.20
2014,07,13,14,53,32.20
2014,07,13,14,54,32.30
2014,07,13,14,55,32.30
2014,07,13,14,56,32.40
2014,07,13,14,57,32.40
2014,07,13,14,58,32.50
2014,07,13,14,59,32.60
2014,07,13,15,00,32.70
2014,07,13,15,01,32.80
2014,07,13,15,02,32.70
2014,07,13,15,03,32.70
2014,07,13,15,04,32.70
2014,07,13,15,05,32.60
2014,07,13,15,06,32.50
2014,07,13,15,07,32.50
2014,07,13,15,08,32.40
2014,07,13,15,09,32.30
2014,07,13,15,10,32.30
2014,07,13,15,11,32.20
2014,07,13,15,12,32.20
2014,07,13,15,13,32.20
2014,07,13,15,14,32.20
2014,07,13,15,15,32.10
2014,07,13,15,16,32.00
2014,07,13,15,17,31.90
2014,07,13,15,18,31.80
2014,07,13,15,19,31.80
2014,07,13,15,20,31.70
2014,07,13,15,21,31.60
2014,07,13,15,22,31.50
2014,07,13,15,23,31.40
2014,07,13,15,24,31.30
2014,07,13,15,25,31.20
2014,07,13,15,26,31.10
2014,07,13,15,27,31.10
2014,07,13,15,28,31.00
2014,07,13,15,29,30.90
2014,07,13,15,30,30.90
2014,07,13,15,31,30.90
2014,07,13,15,32,30.90
2014,07,13,15,33,30.90
2014,07,13,15,34,30.90
2014,07,13,15,35,30.90
2014,07,13,15,36,30.90
2014,07,13,15,37,30.90
2014,07,13,15,38,30.80
2014,07,13,15,39,30.60
2014,07,13,15,40,30.50
2014,07,13,15,41,30.30
2014,07,13,15,42,30.20
2014,07,13,15,43,30.10
2014,07,13,15,44,30.00
2014,07,13,15,45,30.00
2014,07,13,15,46,30.10
2014,07,13,15,47,30.10
2014,07,13,15,48,30.10
2014,07,13,15,49,30.20
2014,07,13,15,50,30.30
2014,07,13,15,51,30.40
2014,07,13,15,52,30.50
2014,07,13,15,53,30.60
2014,07,13,15,54,30.70
2014,07,13,15,55,30.80
2014,07,13,15,56,30.80
2014,07,13,15,57,30.70
2014,07,13,15,58,30.50
2014,07,13,15,59,30.40
2014,07,13,16,00,30.30
2014,07,13,16,01,30.10
2014,07,13,16,02,29.90
2014,07,13,16,03,29.80
2014,07,13,16,04,29.70
2014,07,13,16,05,29.50
2014,07,13,16,06,29.40
2014,07,13,16,07,29.30
2014,07,13,16,08,29.20
2014,07,13,16,09,29.10
2014,07,13,16,10,29.10
2014,07,13,16,11,29.00
2014,07,13,16,12,28.90
2014,07,13,16,13,28.90
2014,07,13,16,14,28.90
2014,07,13,16,15,28.90
2014,07,13,16,16,28.90
2014,07,13,16,17,28.90
2014,07,13,16,18,28.80
2014,07,13,16,19,28.80
2014,07,13,16,20,28.70
2014,07,13,16,21,28.70
2014,07,13,16,22,28.70
2014,07,13,16,23,28.70
2014,07,13,16,24,28.70
2014,07,13,16,25,28.70
2014,07,13,16,26,28.70
2014,07,13,16,27,28.70
2014,07,13,16,28,28.80
2014,07,13,16,29,28.80
2014,07,13,16,30,28.90
2014,07,13,16,31,29.00
2014,07,13,16,32,29.10
2014,07,13,16,33,29.20
2014,07,13,16,34,29.40
2014,07,13,16,35,29.50
2014,07,13,16,36,29.70
2014,07,13,16,37,29.80
2014,07,13,16,38,30.00
2014,07,13,16,39,30.10
2014,07,13,16,40,30.20
2014,07,13,16,41,30.30
2014,07,13,16,42,30.40
2014,07,13,16,43,30.50
2014,07,13,16,44,30.60
2014,07,13,16,45,30.70
2014,07,13,16,46,30.80
2014,07,13,16,47,30.80
2014,07,13,16,48,30.90
2014,07,13,16,49,30.90
2014,07,13,16,50,31.10
2014,07,13,16,51,31.20
2014,07,13,16,52,31.30
2014,07,13,16,53,31.40
2014,07,13,16,54,31.60
2014,07,13,16,55,31.70
2014,07,13,16,56,31.80
2014,07,13,16,57,31.90
2014,07,13,16,58,31.90
2014,07,13,16,59,32.00
2014,07,13,17,00,32.10
2014,07,13,17,01,32.30
2014,07,13,17,02,32.40
2014,07,13,17,03,32.50
2014,07,13,17,04,32.60
2014,07,13,17,05,32.70
2014,07,13,17,06,32.80
2014,07,13,17,07,33.00
2014,07,13,17,08,33.10
2014,07,13,17,09,33.20
2014,07,13,17,10,33.20
2014,07,13,17,11,33.20
2014,07,13,17,12,33.20
2014,07,13,17,13,33.20
2014,07,13,17,14,33.20
2014,07,13,17,15,33.20
2014,07,13,17,16,33.20
2014,07,13,17,17,33.30
2014,07,13,17,18,33.30
2014,07,13,17,19,33.30